Preview of NWS' New Version of Forecast
This preview is not operational and should not be used for support decisions.
Latest weather observations around

Barre / Montpelier, Knapp State Airport (KMPV)

Using English Units (Switch to International System of Units)
Date/ Time (EST) Wind (mph) Vis. (mi) Weather Sky Cond. Temp (°F) Rel. Humidity Wind Chill (°F) Heat Index (°F) Pressure Precip. (in)
Air Dwpt 6 hour Altimeter (inHg) Sea level (inHg) 1 hr 3 hr 6 hr
Max Min
Feb 22 03:23 NW 9 7 Light Snow FEW017 BKN031 OVC044 28 24     85% 19       0    
Feb 22 02:51 NNW 7 8 Light Snow SCT015 BKN020 OVC027 28 25     88% 21     30.17 0    
Feb 22 02:36 Calm 10 Cloudy SCT018 BKN027 OVC044 28 25     88%         0    
Feb 22 02:03 WNW 11 3 Light Snow and Fog/Mist FEW027 BKN033 OVC050 28 26     92% 18       0    
Feb 22 01:51 NW 10 7 Light Snow FEW025 BKN029 OVC055 28 26     92% 19     30.16 0    
Feb 22 01:42 NNW 10 4 Light Snow and Fog/Mist FEW019 BKN027 OVC055 28 26     92% 19       0    
Feb 22 01:26 NNW 9 2.5 Light Snow and Fog/Mist FEW012 BKN028 OVC055 29 27     92% 20       0    
Feb 22 00:51   4 Light Snow and Fog/Mist SCT022 BKN047 OVC055 29 26     89%       30.12 0   0
Feb 22 00:48   3 Light Snow and Fog/Mist FEW014 BKN047 OVC055 28 27     93%         0    
Feb 22 00:44   2 Light Snow and Fog/Mist FEW011 BKN017 OVC055 29 26     89%         0    
Feb 22 00:28   1.25 Light Snow and Fog/Mist FEW008 BKN015 OVC024 29 28     96%         0    
Feb 22 00:25 NW 15 1 Light Snow and Fog/Mist BKN011 BKN020 OVC024 29 28     96% 18       0    
Feb 22 00:18 NW 14 0.75 Light Snow and Fog/Mist BKN009 BKN013 OVC024 29 28     96% 18       0    
Feb 22 00:13 WNW 15 1 Light Snow and Fog/Mist SCT009 BKN013 OVC022 29 27     92% 18       0    
Feb 22 00:11   1.5 Light Snow and Fog/Mist SCT011 BKN022 OVC027 30 27     88%         0    
Feb 22 00:04 NNW 9 2 Light Snow and Fog/Mist SCT009 BKN014 OVC025 30 28     92% 22       0    
Feb 21 23:56 NW 7 2 Light Snow and Fog/Mist SCT011 BKN016 OVC023 29 28     96% 22       0    
Feb 21 23:50 NW 7 1.25 Light Snow and Fog/Mist SCT009 BKN017 OVC031 29 28     96% 22     30.1 0    
Feb 21 23:49 6 1 Light Snow and Fog/Mist BKN009 BKN017 OVC031 28 28     100% 22       0    
Feb 21 23:41 WNW 10 1 Light Snow and Fog/Mist SCT010 BKN017 OVC031 30 27     88% 21       0    
Feb 21 23:38 NW 9 1.5 Light Snow and Fog/Mist SCT012 BKN019 OVC060 30 27     88% 22       0    
Feb 21 23:22 6 9 Light Snow FEW010 BKN032 OVC060 30 27     88% 24       0    
Feb 21 23:09 NNW 8 3 Light Snow and Fog/Mist SCT007 BKN016 OVC055 30 28     92% 22       0    
Feb 21 23:05 WNW 14 1.75 Light Snow and Fog/Mist FEW007 BKN016 OVC021 30 29     96% 19       0    
Feb 21 22:58 NW 10 1.25 Light Snow and Fog/Mist SCT007 BKN011 OVC016 30 30     100% 21       0    
Feb 21 22:51 WNW 11 1.75 Light Snow and Fog/Mist FEW007 OVC016 30 29     96% 21     30.06 0    
Feb 21 22:47 NW 13 1.75 Light Snow and Fog/Mist FEW005 BKN018 OVC024 30 28     93% 20       0    
Feb 21 22:37 NW 11 1.25 Light Snow and Fog/Mist FEW005 BKN018 OVC027 30 29     96% 21       0    
Feb 21 22:27 NW 11 1.75 Light Snow and Fog/Mist FEW007 BKN022 OVC036 30 29     96% 21       0    
Feb 21 22:22 NW 16 2.5 Light Snow and Fog/Mist BKN027 OVC034 31 28     89% 20       0    
Feb 21 21:51 W 9 10 Cloudy BKN037 OVC048 33 25     72% 25     30.05 0 0  
Feb 21 20:51 WNW 16 10 Cloudy FEW037 OVC050 34 23     64% 24     30.02 0    
Feb 21 19:51 WNW 15 10 Light Snow OVC033 34 25     69% 24     29.99 0    
Feb 21 18:51 WNW 14 10 Cloudy OVC040 35 24     64% 26     29.96      
Feb 21 17:51 WNW 11 10 Cloudy OVC037 35 24     64% 27     29.93      
Feb 21 16:51   10 Cloudy BKN037 OVC045 36 25     64%       29.9      
Feb 21 15:51 WNW 14 10 Cloudy OVC035 36 26     67% 27     29.89      
Feb 21 14:51 WNW 16 10 Cloudy OVC034 36 27     70% 26     29.87      
Feb 21 14:02 WNW 15 10 Cloudy OVC031 36 28     73% 27            
Feb 21 13:51 W 8 10 Cloudy BKN028 OVC038 35 28     75% 29     29.85      
Feb 21 13:48 W 7 10 Cloudy OVC028 36 28     75% 30            
Feb 21 13:03 WNW 10 10 Cloudy OVC030 35 28     75% 27            
Feb 21 12:51 W 9 10 Cloudy OVC029 35 28     75% 28     29.86     0
Feb 21 12:21 WNW 9 9 Cloudy BKN029 OVC034 35 30     82% 28            
Feb 21 11:51 WNW 8 10 Cloudy OVC031 33 29     85% 26     29.85      
Feb 21 10:51 NE 3 10 Cloudy SCT033 OVC049 30 28     92% 27     29.83      
Feb 21 09:51 Calm 10 Cloudy BKN043 OVC050 28 27     96%       29.84   0  
Feb 21 08:51 Calm 10 Cloudy OVC048 26 24     92%       29.85      
Feb 21 07:51   10 Cloudy SCT018 OVC055 23 21     92%       29.88 0    
Feb 21 07:32 S 10 9 Cloudy OVC016 23 21     92% 12       0    
Feb 21 06:51 S 5 7 Cloudy OVC010 23 21     92% 17     29.9     0
Feb 21 06:31 S 9 5 Fog/Mist OVC010 22 21     96% 12            
Feb 21 05:51 S 8 4 Fog/Mist OVC009 22 21     96% 13     29.92 0    
Feb 21 05:34 S 9 4 Clear   22 20     92% 12            
Feb 21 04:51 SSE 8 4 Clear   21 19     92% 11     29.95      
Feb 21 04:48 S 7 4 Clear   21 19     93% 13            
Feb 21 04:40 SSE 7 3 Light Freezing Rain and Fog/Mist OVC011 21 19     92% 12       0    
Feb 21 04:31 SSE 7 3 Fog/Mist OVC014 20 19     96% 11       0    
Feb 21 04:12 S 7 3 Fog/Mist BKN016 OVC028 20 19     96% 11       0    
Feb 21 03:58 SSE 8 2 Light Snow and Fog/Mist BKN020 OVC027 20 18     92% 10       0    
Feb 21 03:51 SSE 8 1.25 Light Snow and Fog/Mist BKN020 OVC029 20 18     92% 10     29.95 0 0  
Feb 21 03:25 S 8 1.5 Light Snow and Fog/Mist OVC018 20 18     92% 10       0    
Feb 21 03:16 S 7 1.25 Light Snow and Fog/Mist OVC016 20 18     92% 11       0    
Feb 21 03:10 SSE 10 1 Light Snow and Fog/Mist VV012 20 18     92% 9       0    
Feb 21 02:58 SSE 10 1 Light Snow and Fog/Mist VV009 20 18     92% 9       0    
Feb 21 02:51 SSE 8 0.75 Light Snow and Fog/Mist VV009 20 18     92% 10     30 0    
Feb 21 02:42 SE 7 0.75 Light Snow and Fog/Mist VV009 20 18     92% 11       0    
Feb 21 02:22 SSE 10 1 Light Snow and Fog/Mist BKN014 OVC025 20 18     92% 9       0    
Feb 21 02:14 S 8 1.75 Light Snow and Fog/Mist BKN016 OVC025 20 18     92% 10       0    
Feb 21 01:51 S 9 3 Light Snow and Fog/Mist OVC027 20 17     88% 9     30.04 0    
Feb 21 01:38 S 10 2.5 Light Snow and Fog/Mist SCT019 OVC027 20 17     88% 9       0    
Feb 21 01:19 S 9 1.5 Light Snow and Fog/Mist OVC019 20 17     88% 9       0    
Feb 21 01:03 S 6 2.5 Light Snow and Fog/Mist OVC021 19 17     92% 11       0    
Feb 21 00:51 S 7 3 Light Snow and Fog/Mist OVC020 19 17     92% 10     30.07 0   0
Feb 21 00:43 6 2 Light Snow and Fog/Mist OVC018 19 17     92% 11       0    
Feb 21 00:35 S 6 1.25 Light Snow and Fog/Mist OVC014 19 17     92% 11       0    
Feb 21 00:25 S 10 0.75 Light Snow and Fog/Mist VV012 19 17     92% 7       0    
Feb 21 00:17 S 8 1 Light Snow and Fog/Mist VV014 19 17     92% 9       0    
Feb 21 00:14 S 7 1.25 Light Snow and Fog/Mist OVC016 19 17     92% 10       0    
Feb 21 00:01 S 13 1.75 Light Snow and Fog/Mist OVC018 19 17     92% 6       0    
Feb 20 23:51 S 11 1.25 Light Snow and Fog/Mist OVC016 19 17     92% 7     30.13 0    
Feb 20 23:46 S 9 1.25 Light Snow and Fog/Mist OVC016 19 18     93% 9       0    
Feb 20 23:22 S 8 1.5 Light Snow and Fog/Mist OVC020 19 17     92% 9       0    
Feb 20 23:09 S 10 2 Light Snow and Fog/Mist OVC026 19 17     92% 7       0    
Feb 20 22:58 S 9 2.5 Light Snow and Fog/Mist OVC032 19 17     92% 8       0    
Feb 20 22:51 SSE 9 3 Light Snow and Fog/Mist OVC036 19 16     88% 8     30.21 0    
Feb 20 21:51 S 8 7 Clear   20 15     81% 10     30.28 0 0  
Feb 20 21:41 S 11 10 Cloudy OVC030 20 14     77% 8       0    
Feb 20 21:32 SSE 10 10 Cloudy OVC028 20 14     77% 9       0    
Feb 20 20:58 SSE 6 5 Unknown Precipitation FEW027 OVC032 21 14     74% 13       0    
Feb 20 20:51 SSE 5 5 Unknown Precipitation BKN029 OVC036 21 13     70% 15     30.33 0    
Feb 20 19:51 S 5 10 Cloudy OVC065 22 9     57% 16     30.34      
Feb 20 18:51 S 7 10 Cloudy OVC080 22 9     57% 13     30.39      
Feb 20 17:51 Calm 10 Cloudy OVC110 22 9     57%       30.42      
Feb 20 16:51 S 7 10 Mostly Cloudy BKN120 22 7     52% 13     30.43      
Feb 20 15:51 SSE 8 10 Mostly Clear FEW120 22 8     55% 13     30.44      
Feb 20 14:51 S 8 10 Clear CLR 22 8     55% 13     30.47      
Feb 20 13:51 SSE 8 10 Clear CLR 21 7     54% 11     30.5      
Feb 20 12:51 SSE 9 10 Clear CLR 20 6     54% 9     30.52      
Feb 20 11:51 SE 10 10 Clear CLR 19 4     51% 7     30.54      
Feb 20 10:51 Calm 10 Clear CLR 12 1     61%       30.57      
Feb 20 09:51 Calm 10 Clear CLR 6 -1     72%       30.6      
Feb 20 08:51 Calm 9 Clear CLR 1 -3     83%       30.62      
Feb 20 07:51 Calm 8 Clear CLR -4 -8     83%       30.63      
Feb 20 06:51 S 3 10 Clear CLR -5 -8     87% -13     30.58      
Feb 20 05:51 Calm 10 Clear CLR -5 -8     87%       30.6      
Feb 20 04:51 Calm 10 Clear CLR -6 -8     91%       30.61      
Feb 20 03:51 Calm 10 Clear CLR -1 -6     79%       30.6      
Feb 20 02:51 Calm 10 Clear CLR 0 -6     75%       30.6      
Feb 20 01:51 W 5 10 Clear CLR 1 -4     79% -9     30.62      
Feb 20 00:51 Calm 10 Clear CLR 2 -6     69%       30.61      
Feb 19 23:51 WNW 5 10 Clear CLR 5 -4     66% -4     30.6      
Feb 19 22:51 WSW 6 10 Clear   3 -6     65% -8     30.61      
Feb 19 21:51 Calm 10 Clear CLR 2 -7     65%       30.62      
Feb 19 20:51 Calm 10 Clear CLR 7 -6     55%       30.62      
Feb 19 19:51 NNW 8 10 Clear CLR 10 -5     50% -2     30.6      
Feb 19 18:51 NNW 6 10 Clear CLR 11 -5     48% 1     30.59     0
Feb 19 17:51 NW 7 10 Clear CLR 11 -5     48% 0     30.57      
Feb 19 16:51 NNW 11 10 Clear CLR 14 -4     44% 1     30.55      
Feb 19 15:51 NNW 11 10 Clear CLR 15 -3     44% 2     30.56   0  
Feb 19 14:51 NNW 15 10 Clear CLR 15 -2     46% 0     30.56      
Feb 19 13:51 NNW 15 10 Clear CLR 14 -2     48% -1     30.56 0    
Feb 19 12:51 NNW 18 10 Clear CLR 13 -1     53% -4     30.56      
Feb 19 11:51 WNW 14 9 Clear CLR 11 -3     53% -5     30.56      
Feb 19 10:51 WNW 15 9 Clear CLR 10 -2     57% -7     30.56      
Feb 19 09:51 N 9 10 Mostly Clear FEW027 8 0     69% -5     30.57      
Feb 19 08:51 NNW 8 10 Clear CLR 5 -1     76% -8     30.56      
Feb 19 08:08 NW 10 4 Haze FEW001 4 -2     76% -11            
Feb 19 07:58 NW 9 1 Haze VV001 4 -1     80% -10            
Feb 19 07:51 NW 8 10 Clear CLR 3 -2     79% -10     30.54      
Feb 19 06:51 WNW 8 10 Clear   2 -3     80% -12     30.5      
Feb 19 05:51 WNW 10 10 Clear CLR 3 -3     76% -12     30.48      
Feb 19 04:51 WNW 11 10 Clear CLR 4 -2     76% -12     30.45      
Feb 19 03:51   10 Clear CLR 5 -1     76%       30.42      
Feb 19 02:51 NW 11 10 Clear CLR 6 0     75% -9     30.4      
May 15 09:51 W 3 7 Light Rain BKN035 OVC090 63 62     97%       29.79 0    
May 14 20:51 S 6 10 Clear CLR 66 50     56%       29.87      
May 14 11:51 Calm 10 Clear CLR 68 47     47%       29.94      
May 13 21:51 S 10 10 Clear CLR 57 37     47%       30.03      
May 13 16:51 SE 10 10 Clear CLR 69 31     24%       30.04      
May 13 00:51 Calm 10 Clear CLR 40 35     83%       30.19      
May 12 16:51 S 8 10 Clear   60 30     32%       30.09      
May 12 12:51 SSW 7 10 Clear CLR 56 26     31%       30.17      
May 12 08:51 3 10 Clear CLR 44 33     65% 43     30.26      
May 11 14:51 NW 10 10 Clear CLR 51 25     36%       30.1      
May 11 13:51 WNW 17 10 Clear CLR 49 23     36% 43     30.1      
Jun 11 20:51 NW 3 10 Clear CLR 78 62     58%   78   29.92      
Jun 10 21:51 S 6 10 Clear CLR 69 57     65%       29.96      
Jun 10 18:51 SW 10 10 Partly Cloudy SCT100 75 57     54%   75   29.93      
Jun 10 17:51 SW 7 10 Clear CLR 76 56     50%   76   29.93      
Jun 10 05:15 Calm 2 Fog/Mist BKN001 48 48     100%              
Notice The following observation data may not be complete
Jun 10 05:10   10 Partly Cloudy SCT001          %              
Jun 08 20:51 S 10 10 Clear CLR 68 51     55%       29.88      
Jun 07 21:51 Calm 10 Clear CLR 55 48     77%       30.05      
Jun 07 12:51 N 13 10 Clear CLR 68 48     49%       30.03      
Jun 06 11:51 NE 6 6 Light Rain and Fog/Mist BKN006 OVC050 49 49     100% 46     29.92 0    
Jun 05 19:51 SSE 8 10 Cloudy OVC020 54 49     83%       29.91 0   0
Jun 05 16:51 SSE 10 10 Cloudy OVC018 56 52     87%       29.89   0